This demonstration page uses our WeatherBlox Daily Observations layout. Learn more.

Hourly Observations for January 18, 2018

Temp ( °F °C ) Dew Point ( °F °C ) Humidity (%) Winds ( mph kmh ) Pressure ( in mb ) Visibility ( mi km ) Precip ( " mm )
12:15 am 00:15 Clear 21 -6.2 14 -10 75 75 SW 9 15 30.33 1027 10 16.0934 0 0
12:35 am 00:35 Clear 21 -6.2 14 -10 75 75 SSW 8 13 30.33 1027 10 16.0934 0 0
12:55 am 00:55 Clear 20 -6.5 14 -9.9 77 77 SW 7 11 30.33 1027 10 16.0934 0 0
1:15 am 01:15 Clear 21 -6.3 14 -10 75 75 SW 6 9 30.33 1027 10 16.0934 0 0
1:35 am 01:35 Clear 20 -6.6 14 -10 77 77 SW 6 9 30.3 1026 10 16.0934 0 0
1:55 am 01:55 Clear 21 -6.2 14 -9.8 76 76 WSW 5 7 30.3 1026 10 16.0934 0 0
2:15 am 02:15 Clear 21 -5.9 15 -9.7 75 75 W 5 7 30.3 1026 10 16.0934 0 0
2:35 am 02:35 Clear 21 -6 14 -10 74 74 W 8 13 30.3 1026 10 16.0934 0 0
2:55 am 02:55 Clear 20 -6.8 14 -10 78 78 W 7 11 30.3 1026 10 16.0934 0 0
3:15 am 03:15 Clear 19 -7.1 13 -10.3 78 78 W 7 11 30.3 1026 10 16.0934 0 0
3:35 am 03:35 Clear 18 -7.8 13 -10.5 81 81 W 5 7 30.3 1026 10 16.0934 0 0
3:55 am 03:55 Clear 18 -7.6 13 -10.3 81 81 Calm 30.3 1026 10 16.0934 0 0
4:15 am 04:15 Clear 17 -8.1 13 -10.6 82 82 WSW 3 6 30.3 1026 10 16.0934 0 0
4:35 am 04:35 Clear 17 -8.4 12 -10.9 82 82 W 3 6 30.33 1027 10 16.0934 0 0
4:55 am 04:55 Clear 17 -8.2 13 -10.4 84 84 SW 3 6 30.27 1025 10 16.0934 0 0
5:15 am 05:15 Clear 18 -7.6 14 -10.1 82 82 WSW 3 6 30.27 1025 10 16.0934 0 0
5:35 am 05:35 Clear 18 -7.9 14 -10.2 84 84 WSW 3 6 30.27 1025 10 16.0934 0 0
5:55 am 05:55 Clear 17 -8.2 13 -10.5 84 84 SW 5 7 30.24 1024 10 16.0934 0 0
6:15 am 06:15 Clear 17 -8.4 13 -10.6 84 84 SW 5 7 30.24 1024 10 16.0934 0 0
6:35 am 06:35 Clear 20 -6.9 16 -9 85 85 WSW 8 13 30.24 1024 10 16.0934 0 0
6:55 am 06:55 Clear 21 -6.3 16 -8.9 82 82 WSW 5 7 30.24 1024 10 16.0934 0 0
7:15 am 07:15 Clear 21 -5.9 17 -8.5 82 82 WSW 6 9 30.24 1024 10 16.0934 0 0
7:35 am 07:35 Clear 21 -6 17 -8.6 82 82 WSW 5 7 30.24 1024 10 16.0934 0 0
7:55 am 07:55 Clear 22 -5.5 17 -8.3 81 81 WSW 5 7 30.18 1022 10 16.0934 0 0
8:15 am 08:15 Sunny 21 -5.9 16 -8.7 81 81 WSW 3 6 30.18 1022 10 16.0934 0 0
8:35 am 08:35 Sunny 23 -5 17 -8.5 77 77 WSW 3 6 30.18 1022 10 16.0934 0 0
8:55 am 08:55 Sunny 23 -5 17 -8.2 79 79 WSW 8 13 30.21 1023 10 16.0934 0 0
9:15 am 09:15 Sunny 23 -4.8 17 -8.1 78 78 W 7 11 30.21 1023 10 16.0934 0 0
9:35 am 09:35 Sunny 25 -4.1 19 -7.4 78 78 W 7 11 30.21 1023 10 16.0934 0 0
9:55 am 09:55 Sunny 28 -2.3 21 -6.2 75 75 SW 7 11 30.18 1022 10 16.0934 0 0
10:15 am 10:15 Sunny 30 -0.9 22 -5.3 72 72 SW 6 9 30.18 1022 10 16.0934 0 0
10:35 am 10:35 Sunny 32 0.2 24 -4.5 71 71 W 8 13 30.15 1021 10 16.0934 0 0
10:55 am 10:55 Sunny 35 1.5 25 -4 67 67 W 13 20 30.15 1021 10 16.0934 0 0
11:15 am 11:15 Sunny 36 2.3 26 -3.5 66 66 W 10 17 30.15 1021 10 16.0934 0 0
11:35 am 11:35 Sunny 38 3.6 27 -2.9 63 63 WSW 9 15 30.09 1019 10 16.0934 0 0
11:55 am 11:55 Sunny 41 5 27 -2.9 57 57 W 10 17 30.09 1019 10 16.0934 0 0
12:15 pm 12:15 Sunny 42 5.8 27 -2.9 54 54 WSW 8 13 30.06 1018 10 16.0934 0 0
12:35 pm 12:35 Sunny 43 6.2 27 -2.7 53 53 SW 9 15 30.03 1017 10 16.0934 0 0
12:55 pm 12:55 Sunny 44 6.5 28 -2.5 53 53 SW 9 15 30 1016 10 16.0934 0 0
1:15 pm 13:15 Sunny 44 6.7 27 -2.7 51 51 WSW 9 15 30 1016 10 16.0934 0 0
1:35 pm 13:35 Sunny 46 7.6 28 -2.5 49 49 WSW 13 20 29.97 1015 10 16.0934 0 0
1:55 pm 13:55 Sunny 47 8.3 28 -2.5 47 47 WSW 12 19 29.97 1015 10 16.0934 0 0
2:15 pm 14:15 Sunny 48 9 26 -3.3 42 42 WSW 9 15 29.94 1014 10 16.0934 0 0
2:35 pm 14:35 Sunny 49 9.5 26 -3.4 40 40 WSW 8 13 29.94 1014 10 16.0934 0 0
2:55 pm 14:55 Sunny 49 9.5 27 -2.9 42 42 SW 7 11 29.91 1013 10 16.0934 0 0
3:15 pm 15:15 Sunny 49 9.2 28 -2.1 45 45 SW 6 9 29.91 1013 10 16.0934 0 0
3:35 pm 15:35 Sunny 48 9.1 29 -1.5 48 48 NNW 7 11 29.91 1013 10 16.0934 0 0
3:55 pm 15:55 Sunny 48 9 29 -1.4 48 48 NW 8 13 29.91 1013 10 16.0934 0 0
4:15 pm 16:15 Sunny 47 8.5 30 -1.1 51 51 SW 6 9 29.91 1013 10 16.0934 0 0
4:35 pm 16:35 Sunny 47 8.1 30 -1 53 53 SW 5 7 29.94 1014 10 16.0934 0 0
4:55 pm 16:55 Sunny 45 7.4 30 -0.9 56 56 SSW 5 7 29.94 1014 10 16.0934 0 0
5:15 pm 17:15 Sunny 44 6.8 31 -0.8 59 59 SW 7 11 29.94 1014 10 16.0934 0 0
5:35 pm 17:35 Sunny 43 6 30 -1.3 60 60 SW 6 9 29.94 1014 10 16.0934 0 0
5:55 pm 17:55 Clear 41 5.2 29 -1.8 61 61 SW 6 9 29.94 1014 10 16.0934 0 0
6:15 pm 18:15 Clear 41 5 28 -2.1 60 60 SW 6 9 29.97 1015 10 16.0934 0 0
6:35 pm 18:35 Clear 40 4.7 27 -2.7 59 59 WSW 5 7 29.97 1015 10 16.0934 0 0
6:55 pm 18:55 Clear 40 4.5 26 -3.1 58 58 Calm 29.97 1015 10 16.0934 0 0
7:15 pm 19:15 Clear 40 4.5 26 -3.1 58 58 SW 5 7 29.97 1015 10 16.0934 0 0
7:35 pm 19:35 Clear 41 4.8 27 -3 57 57 SW 7 11 29.97 1015 10 16.0934 0 0
7:55 pm 19:55 Clear 40 4.5 27 -3 59 59 SW 5 7 29.97 1015 10 16.0934 0 0
8:15 pm 20:15 Clear 39 4 27 -3 61 61 SW 3 6 29.97 1015 10 16.0934 0 0
8:35 pm 20:35 Clear 40 4.6 27 -3 58 58 SSW 7 11 29.94 1014 10 16.0934 0 0
8:55 pm 20:55 Clear 38 3.4 27 -2.9 64 64 SW 6 9 29.94 1014 10 16.0934 0 0
9:15 pm 21:15 Clear 38 3.6 27 -2.6 64 64 SSW 7 11 29.94 1014 10 16.0934 0 0
9:35 pm 21:35 Clear 37 2.7 27 -3 66 66 Calm 29.94 1014 10 16.0934 0 0
9:55 pm 21:55 Clear 40 4.3 27 -2.6 61 61 SW 5 7 29.94 1014 10 16.0934 0 0
10:15 pm 22:15 Clear 38 3.5 27 -2.6 65 65 SSW 7 11 29.94 1014 10 16.0934 0 0
10:35 pm 22:35 Clear 39 3.7 28 -2.5 64 64 SW 6 9 29.94 1014 10 16.0934 0 0
10:55 pm 22:55 Clear 40 4.2 28 -2.5 62 62 SW 7 11 29.94 1014 10 16.0934 0 0
11:15 pm 23:15 Clear 39 3.7 28 -2.5 64 64 SSW 8 13 29.91 1013 10 16.0934 0 0
11:35 pm 23:35 Clear 39 3.7 27 -2.6 64 64 SW 8 13 29.91 1013 10 16.0934 0 0
11:55 pm 23:55 Clear 38 3.2 27 -2.6 66 66 SW 9 15 29.91 1013 10 16.0934 0 0

Powered by AerisWeather